�N����,����,�~����,�C��,���x,�C��,����,���ϕ���,�ő�u�ԕ���,�ő厞����,���˗�,�I�_���x,�n�����x,�ő啗���N��,DTYPE
"23/10/19","00:10",0.0,14.9,91.1,1015.4,290.1,0.5,1.2,278.9,0.00,13.5,18.0,"00:08:18",1
"23/10/19","00:20",0.0,15.0,91.2,1015.4,305.5,1.2,1.8,323.3,0.00,13.6,17.9,"00:10:40",1
"23/10/19","00:30",0.0,15.1,91.2,1015.2,301.8,1.2,1.6,312.6,0.00,13.7,17.7,"00:24:50",1
"23/10/19","00:40",0.0,15.2,91.2,1015.2,294.2,1.2,1.9,293.0,0.00,13.8,18.1,"00:31:24",1
"23/10/19","00:50",0.0,15.3,91.1,1014.9,298.7,1.0,1.3,320.2,0.00,13.9,18.1,"00:46:30",1
"23/10/19","01:00",0.0,15.2,90.9,1015.2,288.3,1.1,1.6,320.6,0.00,13.8,18.0,"00:59:32",1
"23/10/19","01:10",0.0,15.1,90.9,1015.2,303.7,1.2,1.7,315.1,0.00,13.7,18.0,"01:02:30",1
"23/10/19","01:20",0.0,14.9,90.8,1015.2,306.7,1.1,1.4,325.2,0.00,13.5,17.8,"01:17:20",1
"23/10/19","01:30",0.0,14.7,90.8,1015.2,292.0,1.0,1.4,311.0,0.00,13.3,18.0,"01:28:06",1
"23/10/19","01:40",0.0,14.6,90.8,1014.9,305.4,1.0,1.7,328.8,0.00,13.2,18.0,"01:32:32",1
"23/10/19","01:50",0.0,14.3,90.9,1014.7,315.9,0.8,1.2,309.8,0.00,12.9,17.8,"01:42:40",1
"23/10/19","02:00",0.0,14.1,91.0,1015.2,308.0,0.8,1.8,320.7,0.00,12.7,18.1,"01:58:16",1
"23/10/19","02:10",0.0,13.7,91.2,1014.9,305.9,1.2,1.6,306.7,0.00,12.3,17.7,"02:07:30",1
"23/10/19","02:20",0.0,13.4,91.4,1014.7,289.4,1.0,1.4,320.3,0.00,12.1,18.0,"02:13:50",1
"23/10/19","02:30",0.0,13.4,91.8,1014.9,300.9,1.3,1.9,327.0,0.00,12.1,17.9,"02:28:54",1
"23/10/19","02:40",0.0,13.6,92.0,1015.4,303.7,1.2,2.0,322.9,0.00,12.4,17.9,"02:31:20",1
"23/10/19","02:50",0.0,13.9,92.2,1014.9,303.6,1.1,1.7,320.6,0.00,12.7,17.8,"02:40:32",1
"23/10/19","03:00",0.0,14.0,92.3,1015.2,303.6,1.1,2.0,316.3,0.00,12.8,17.8,"02:50:32",1
"23/10/19","03:10",0.0,14.0,92.4,1014.9,283.2,1.1,1.7,322.9,0.00,12.8,17.9,"03:00:16",1
"23/10/19","03:20",0.0,14.2,92.5,1015.2,286.3,1.1,1.6,324.2,0.00,13.0,17.7,"03:16:00",1
"23/10/19","03:30",0.0,14.3,92.8,1014.9,302.1,0.8,1.8,324.0,0.00,13.2,17.6,"03:27:28",1
"23/10/19","03:40",0.0,14.2,92.8,1014.9,306.6,1.0,1.4,322.7,0.00,13.1,17.8,"03:38:08",1
"23/10/19","03:50",0.0,14.1,92.9,1014.9,288.9,0.8,1.3,311.6,0.00,13.0,17.4,"03:48:24",1
"23/10/19","04:00",0.0,14.0,93.1,1014.9,316.5,1.3,1.8,320.7,0.00,12.9,17.6,"03:55:04",1
"23/10/19","04:10",0.0,13.7,93.4,1015.2,273.7,1.0,1.4,318.6,0.00,12.7,17.7,"04:00:56",1
"23/10/19","04:20",0.0,13.5,93.4,1015.2,274.3,0.6,1.0,254.0,0.00,12.5,17.7,"04:10:08",1
"23/10/19","04:30",0.0,13.4,93.6,1015.2,305.6,1.2,2.2,309.0,0.00,12.4,17.6,"04:28:58",1
"23/10/19","04:40",0.0,13.1,93.7,1015.2,305.5,1.3,1.8,318.0,0.00,12.1,17.6,"04:34:14",1
"23/10/19","04:50",0.0,12.9,93.9,1015.2,305.9,1.5,2.2,321.4,0.00,12.0,17.4,"04:49:14",1
"23/10/19","05:00",0.0,12.7,94.0,1014.9,299.3,1.3,1.9,318.7,0.00,11.8,17.5,"04:50:16",1
"23/10/19","05:10",0.0,12.5,94.2,1015.2,299.0,1.5,1.9,313.3,0.00,11.6,17.5,"05:05:44",1
"23/10/19","05:20",0.0,12.9,94.4,1014.9,300.6,1.6,1.8,304.5,0.00,12.1,17.5,"05:14:44",1
"23/10/19","05:30",0.0,12.9,94.2,1014.9,315.0,1.5,2.1,316.6,0.00,12.0,17.6,"05:20:46",1
"23/10/19","05:40",0.0,12.4,94.4,1014.9,298.3,1.6,2.0,319.3,0.00,11.6,17.3,"05:38:58",1
"23/10/19","05:50",0.0,12.2,94.5,1014.9,306.8,1.7,2.0,314.5,0.00,11.4,17.4,"05:47:12",1
"23/10/19","06:00",0.0,12.1,94.8,1014.9,315.6,2.1,2.4,322.4,0.00,11.3,17.4,"05:59:34",1
"23/10/19","06:10",0.0,12.0,94.9,1015.2,307.7,1.7,2.0,305.3,0.00,11.2,17.3,"06:00:12",1
"23/10/19","06:20",0.0,12.1,95.0,1014.9,309.6,2.0,2.0,315.9,0.00,11.4,17.2,"06:10:22",1
"23/10/19","06:30",0.0,12.1,95.2,1015.2,306.4,1.2,1.4,303.2,0.00,11.4,17.2,"06:24:48",1
"23/10/19","06:40",0.0,12.4,95.2,1014.9,313.1,2.0,2.7,318.4,0.00,11.7,17.3,"06:38:38",1
"23/10/19","06:50",0.0,12.3,95.3,1015.2,301.7,1.5,2.5,318.8,0.00,11.6,17.1,"06:40:10",1
"23/10/19","07:00",0.0,12.7,95.4,1015.2,293.0,1.0,1.1,292.4,0.01,12.0,17.1,"06:50:40",1
"23/10/19","07:10",0.0,13.5,95.4,1015.4,295.4,0.5,1.1,292.2,0.02,12.8,17.2,"07:07:36",1
"23/10/19","07:20",0.0,14.4,95.4,1015.4,298.4,0.5,1.0,303.2,0.03,13.7,17.1,"07:10:08",1
"23/10/19","07:30",0.0,15.3,95.2,1015.4,286.8,0.1,0.5,295.6,0.04,14.6,17.1,"07:29:12",1
"23/10/19","07:40",0.0,16.3,95.1,1015.2,288.8,0.1,0.5,282.4,0.06,15.6,17.1,"07:36:08",1
"23/10/19","07:50",0.0,16.8,94.9,1015.2,308.6,0.7,1.2,321.1,0.09,16.0,16.8,"07:44:16",1
"23/10/19","08:00",0.0,16.5,94.1,1015.4,314.9,1.2,2.4,332.8,0.11,15.6,17.1,"07:59:04",1
"23/10/19","08:10",0.0,17.1,93.2,1015.9,314.5,0.8,2.1,342.6,0.13,16.0,17.1,"08:00:40",1
"23/10/19","08:20",0.0,17.7,92.6,1015.9,256.9,0.3,1.0,256.2,0.15,16.5,17.1,"08:12:48",1
"23/10/19","08:30",0.0,18.3,90.4,1015.4,344.0,0.3,1.4,359.0,0.18,16.7,17.3,"08:26:24",1
"23/10/19","08:40",0.0,18.9,87.0,1015.4,233.1,0.5,1.1,205.7,0.20,16.7,17.0,"08:33:12",1
"23/10/19","08:50",0.0,20.0,81.6,1014.9,333.3,0.5,1.2,359.1,0.22,16.8,17.1,"08:47:12",1
"23/10/19","09:00",0.0,20.9,75.9,1015.2,308.1,0.3,1.1,327.4,0.25,16.5,17.2,"08:52:40",1
"23/10/19","09:10",0.0,21.0,72.0,1014.9,231.8,0.7,1.4,195.8,0.26,15.8,17.4,"09:06:16",1
"23/10/19","09:20",0.0,21.5,71.3,1014.2,194.8,0.6,1.6,217.3,0.28,16.1,17.2,"09:15:52",1
"23/10/19","09:30",0.0,21.7,68.8,1014.0,21.5,0.7,1.9,86.8,0.30,15.8,17.2,"09:23:52",1
"23/10/19","09:40",0.0,22.5,66.9,1013.8,4.1,0.5,1.8,115.5,0.32,16.1,17.3,"09:31:52",1
"23/10/19","09:50",0.0,22.7,66.4,1013.5,169.1,0.7,1.8,124.1,0.34,16.2,17.4,"09:41:52",1
"23/10/19","10:00",0.0,23.0,66.9,1013.0,239.3,0.7,1.6,202.6,0.35,16.6,17.6,"09:52:24",1
"23/10/19","10:10",0.0,23.1,66.9,1012.8,163.8,1.1,2.4,184.8,0.37,16.7,17.6,"10:09:44",1
"23/10/19","10:20",0.0,23.0,67.5,1012.8,175.2,1.2,2.5,192.0,0.37,16.7,17.5,"10:13:28",1
"23/10/19","10:30",0.0,22.8,67.2,1012.8,206.8,1.8,3.3,202.1,0.38,16.4,17.8,"10:25:44",1
"23/10/19","10:40",0.0,23.6,66.8,1012.8,181.9,1.3,3.1,209.8,0.40,17.1,17.7,"10:36:08",1
"23/10/19","10:50",0.0,23.9,65.0,1012.6,170.3,1.2,2.7,218.1,0.40,17.0,18.0,"10:40:32",1
"23/10/19","11:00",0.0,24.7,63.2,1011.9,156.4,0.8,2.4,184.5,0.41,17.3,18.2,"10:52:00",1
"23/10/19","11:10",0.0,24.7,62.2,1011.6,122.4,1.2,2.9,112.4,0.40,17.0,18.2,"11:06:08",1
"23/10/19","11:20",0.0,24.1,60.9,1011.2,245.5,1.7,4.7,226.1,0.40,16.1,18.2,"11:16:08",1
"23/10/19","11:30",0.0,24.4,62.6,1011.2,237.0,1.5,3.5,236.8,0.41,16.8,18.2,"11:21:28",1
"23/10/19","11:40",0.0,24.6,63.7,1011.2,174.5,1.0,2.8,96.1,0.26,17.3,18.4,"11:32:08",1
"23/10/19","11:50",0.0,24.9,63.0,1010.9,112.2,0.8,1.9,71.0,0.23,17.4,18.6,"11:43:28",1
"23/10/19","12:00",0.0,25.3,60.9,1010.9,86.9,0.7,2.4,121.3,0.39,17.3,18.5,"11:53:04",1
"23/10/19","12:10",0.0,25.6,58.0,1010.4,20.4,0.7,2.2,13.5,0.26,16.8,18.8,"12:02:32",1
"23/10/19","12:20",0.0,25.2,58.5,1010.4,355.7,0.8,2.0,352.1,0.21,16.5,18.6,"12:16:56",1
"23/10/19","12:30",0.0,25.0,59.6,1010.2,356.1,1.1,2.5,348.7,0.32,16.6,18.8,"12:28:24",1
"23/10/19","12:40",0.0,25.8,57.3,1010.2,43.4,1.1,2.7,14.4,0.40,16.8,18.9,"12:37:12",1
"23/10/19","12:50",0.0,26.3,56.0,1010.0,265.3,0.8,2.8,239.9,0.39,16.9,19.0,"12:46:24",1
"23/10/19","13:00",0.0,26.0,52.7,1010.2,313.2,1.3,2.9,254.5,0.38,15.6,19.2,"12:50:48",1
"23/10/19","13:10",0.0,26.6,51.6,1010.2,13.5,1.0,2.1,15.9,0.31,15.9,19.2,"13:06:40",1
"23/10/19","13:20",0.0,26.2,51.2,1009.7,357.6,0.7,2.4,343.5,0.18,15.4,19.1,"13:11:28",1
"23/10/19","13:30",0.0,26.5,50.8,1010.0,196.4,0.7,2.0,219.6,0.31,15.5,19.3,"13:22:56",1
"23/10/19","13:40",0.0,26.3,49.2,1009.7,310.2,0.6,1.2,243.2,0.16,14.8,19.4,"13:36:00",1
"23/10/19","13:50",0.0,25.9,49.8,1009.0,267.8,1.2,2.6,220.6,0.18,14.7,19.5,"13:46:56",1
"23/10/19","14:00",0.0,26.1,51.7,1009.0,220.0,0.8,2.1,224.6,0.22,15.4,19.5,"13:52:56",1
"23/10/19","14:10",0.0,26.7,50.9,1009.3,182.8,1.2,3.3,203.9,0.29,15.7,19.4,"14:01:28",1
"23/10/19","14:20",0.0,26.0,50.3,1009.3,213.9,1.0,2.4,242.7,0.09,14.9,19.6,"14:19:20",1
"23/10/19","14:30",0.0,25.4,51.0,1008.6,214.5,1.0,2.4,196.6,0.10,14.6,19.6,"14:28:16",1
"23/10/19","14:40",0.0,25.1,51.5,1008.8,322.2,0.5,2.0,310.5,0.06,14.5,19.7,"14:30:16",1
"23/10/19","14:50",0.0,25.4,52.4,1008.6,320.5,0.8,2.8,239.8,0.12,15.0,19.6,"14:48:48",1
"23/10/19","15:00",0.0,26.7,51.5,1008.8,220.8,1.1,3.4,231.2,0.22,15.9,19.7,"14:56:00",1
"23/10/19","15:10",0.0,26.8,48.9,1008.6,187.7,1.1,2.9,182.1,0.20,15.2,19.7,"15:03:12",1
"23/10/19","15:20",0.0,26.2,48.8,1008.3,214.2,1.8,3.6,137.2,0.11,14.6,19.7,"15:13:36",1
"23/10/19","15:30",0.0,25.4,52.3,1008.8,235.3,1.3,3.3,232.6,0.05,15.0,19.8,"15:29:28",1
"23/10/19","15:40",0.0,26.0,53.0,1008.6,248.2,1.5,3.2,234.1,0.11,15.7,19.7,"15:35:20",1
"23/10/19","15:50",0.0,25.6,52.5,1008.8,239.7,2.6,5.2,231.1,0.08,15.2,19.6,"15:42:24",1
"23/10/19","16:00",0.0,25.2,53.7,1008.8,217.7,2.7,4.5,211.9,0.06,15.2,19.9,"15:54:32",1
"23/10/19","16:10",0.0,25.0,53.5,1008.8,212.1,2.6,5.2,211.8,0.05,14.9,19.7,"16:07:04",1
"23/10/19","16:20",0.0,24.7,52.1,1008.8,218.8,2.0,4.7,231.0,0.03,14.3,19.9,"16:14:32",1
"23/10/19","16:30",0.0,24.4,52.9,1009.0,212.1,2.1,3.5,219.6,0.02,14.2,19.9,"16:25:20",1
"23/10/19","16:40",0.0,24.0,52.0,1009.0,207.9,1.8,3.7,186.8,0.01,13.6,19.8,"16:33:28",1
"23/10/19","16:50",0.0,23.6,52.3,1009.0,218.2,1.5,2.7,225.4,0.01,13.3,19.8,"16:46:56",1
"23/10/19","17:00",0.0,23.1,54.6,1009.3,208.7,0.7,2.7,230.6,0.00,13.5,19.8,"16:52:40",1
"23/10/19","17:10",0.0,22.6,55.3,1009.7,294.1,0.6,2.5,250.0,0.00,13.2,19.9,"17:01:52",1
"23/10/19","17:20",0.0,21.9,58.5,1009.7,342.9,0.7,1.7,326.9,0.00,13.4,19.9,"17:18:16",1
"23/10/19","17:30",0.0,20.9,63.4,1009.7,329.2,1.1,2.0,342.3,0.00,13.7,19.7,"17:21:28",1
"23/10/19","17:40",0.0,20.0,66.7,1010.0,331.2,1.1,1.8,348.3,0.00,13.7,19.8,"17:39:52",1
"23/10/19","17:50",0.0,19.4,68.1,1010.2,341.4,1.2,2.0,309.6,0.00,13.4,19.7,"17:44:40",1
"23/10/19","18:00",0.0,18.8,69.1,1009.7,332.1,0.6,1.9,331.6,0.00,13.1,19.6,"17:51:44",1
"23/10/19","18:10",0.0,18.4,70.8,1010.0,332.3,0.8,1.4,339.1,0.00,13.0,19.7,"18:09:36",1
"23/10/19","18:20",0.0,18.1,73.0,1010.0,333.5,1.6,3.1,344.8,0.00,13.2,19.6,"18:16:48",1
"23/10/19","18:30",0.0,18.1,74.2,1010.0,327.4,1.3,3.1,302.1,0.00,13.5,19.4,"18:29:36",1
"23/10/19","18:40",0.0,18.3,74.1,1010.2,323.7,2.1,3.6,334.5,0.00,13.7,19.4,"18:30:24",1
"23/10/19","18:50",0.0,18.2,73.5,1010.4,304.7,1.6,3.1,317.2,0.00,13.4,19.2,"18:40:16",1
"23/10/19","19:00",0.0,17.8,73.6,1010.7,295.7,1.2,1.8,309.2,0.00,13.1,19.2,"18:54:08",1
"23/10/19","19:10",0.0,17.2,74.4,1010.7,304.4,1.0,2.2,311.4,0.00,12.7,19.4,"19:04:40",1
"23/10/19","19:20",0.0,16.6,76.3,1010.4,312.4,0.8,1.7,339.4,0.00,12.5,19.2,"19:19:12",1
"23/10/19","19:30",0.0,16.0,78.4,1010.2,301.8,1.2,2.0,313.1,0.00,12.3,19.2,"19:22:42",1
"23/10/19","19:40",0.0,15.8,79.8,1010.4,302.2,1.2,1.9,328.3,0.00,12.4,19.0,"19:34:48",1
"23/10/19","19:50",0.0,15.8,80.8,1010.7,307.2,1.6,2.0,316.4,0.00,12.6,19.2,"19:48:00",1
"23/10/19","20:00",0.0,16.0,80.4,1010.9,300.5,1.6,2.6,339.0,0.00,12.7,18.9,"19:51:04",1
"23/10/19","20:10",0.0,16.0,80.3,1011.2,310.2,1.5,1.8,319.1,0.00,12.7,19.1,"20:00:08",1
"23/10/19","20:20",0.0,15.3,81.0,1010.9,304.5,1.1,1.9,327.7,0.00,12.1,18.9,"20:10:08",1
"23/10/19","20:30",0.0,15.0,82.1,1010.4,291.7,1.0,1.4,321.0,0.00,12.0,19.0,"20:22:48",1
"23/10/19","20:40",0.0,15.0,83.0,1010.7,274.6,1.0,1.9,322.5,0.00,12.2,18.7,"20:37:04",1
"23/10/19","20:50",0.0,15.1,83.4,1010.4,282.3,1.2,1.9,310.6,0.00,12.3,18.8,"20:48:16",1
"23/10/19","21:00",0.0,15.4,83.1,1011.2,302.0,1.5,2.0,324.9,0.00,12.6,18.6,"20:55:52",1
"23/10/19","21:10",0.0,15.5,82.7,1011.2,311.8,1.3,1.9,315.6,0.00,12.6,18.6,"21:04:10",1
"23/10/19","21:20",0.0,14.8,83.0,1010.9,309.6,1.1,1.4,328.7,0.00,12.0,18.6,"21:10:56",1
"23/10/19","21:30",0.0,14.8,83.9,1010.9,303.3,1.3,1.9,312.4,0.00,12.1,18.5,"21:27:04",1
"23/10/19","21:40",0.0,15.1,84.3,1010.9,298.6,1.2,1.8,321.2,0.00,12.5,18.4,"21:35:28",1
"23/10/19","21:50",0.0,15.0,84.5,1010.7,313.8,1.5,1.9,324.4,0.00,12.5,18.3,"21:44:38",1
"23/10/19","22:00",0.0,14.9,85.1,1010.9,319.0,1.5,1.9,319.4,0.00,12.5,18.4,"21:53:52",1
"23/10/19","22:10",0.0,15.0,85.4,1011.2,315.1,1.0,1.7,322.3,0.00,12.6,18.4,"22:02:34",1
"23/10/19","22:20",0.0,14.7,85.7,1010.9,310.1,1.2,1.7,306.3,0.00,12.4,18.4,"22:11:12",1
"23/10/19","22:30",0.0,14.2,86.2,1010.7,295.4,1.0,1.4,315.3,0.00,12.0,18.5,"22:28:48",1
"23/10/19","22:40",0.0,14.2,86.8,1010.7,313.4,1.2,1.7,326.0,0.00,12.1,18.2,"22:35:12",1
"23/10/19","22:50",0.0,14.1,87.3,1010.7,304.7,1.0,1.4,312.8,0.00,12.1,18.5,"22:45:20",1
"23/10/19","23:00",0.0,13.9,87.8,1010.4,306.4,1.3,2.0,324.7,0.00,12.0,18.1,"22:57:28",1
"23/10/19","23:10",0.0,13.6,88.3,1010.2,289.8,1.0,1.3,305.0,0.00,11.7,18.2,"23:08:20",1
"23/10/19","23:20",0.0,13.6,88.8,1010.0,293.2,1.3,1.7,319.3,0.00,11.8,18.0,"23:15:22",1
"23/10/19","23:30",0.0,13.7,89.1,1010.0,303.4,1.3,1.7,306.6,0.00,12.0,18.2,"23:22:40",1
"23/10/19","23:40",0.0,13.6,89.4,1010.0,293.7,1.1,1.9,322.5,0.00,11.9,18.1,"23:34:56",1
"23/10/19","23:50",0.0,13.6,89.8,1010.0,301.2,1.3,2.4,325.0,0.00,12.0,18.2,"23:48:52",1
"23/10/19","24:00",0.0,13.7,90.0,1009.7,318.3,1.3,1.9,308.4,0.00,12.1,18.1,"23:50:32",1
